Location: *
(29.1167°S, 130.0000°E)
Time: 20:14:34
(UTC+00:00)

Cosmos 2227 Rocket - Pass Details

Date: 21 July 2019
Orbit: 838 x 846 km, 71.0° (Epoch: 19 August)

Event Time Altitude Azimuth Distance (km) Brightness Sun altitude
Rises 10:39:34 0° 1° (N) 3,388 5.5 -25.3°
Reaches altitude 10° 10:42:08 10° 8° (N) 2,461 4.6 -25.8°
Enters shadow 10:44:15 22° 21° (NNE) 1,770 3.7 -26.3°
